Time,TemperatureF,DewpointF,PressureIn,WindDirection,WindDirectionDegrees,WindSpeedMPH,WindSpeedGustMPH,Humidity,HourlyPrecipIn,Conditions,Clouds,dailyrainin,SoftwareType,DateUTC
2013-06-18 00:14:00,70.9,66.0,29.79,SW,236,1.0,-999.0,83,-99.99,,,0.00,weatherlink.com 1.10,2013-06-18 04:14:00,
2013-06-18 00:29:00,70.6,66.0,29.78,WSW,237,0.0,-999.0,84,-99.99,,,0.00,weatherlink.com 1.10,2013-06-18 04:29:00,
2013-06-18 00:44:00,70.3,66.0,29.78,WSW,237,0.0,-999.0,85,-99.99,,,0.00,weatherlink.com 1.10,2013-06-18 04:44:00,
2013-06-18 00:59:00,70.1,65.0,29.77,SW,236,0.0,-999.0,85,-99.99,,,0.00,weatherlink.com 1.10,2013-06-18 04:59:00,
2013-06-18 01:14:00,69.9,65.0,29.77,SW,222,0.0,-999.0,85,-99.99,,,0.00,weatherlink.com 1.10,2013-06-18 05:14:00,
2013-06-18 01:29:00,69.6,65.0,29.77,SW,222,0.0,-999.0,86,-99.99,,,0.00,weatherlink.com 1.10,2013-06-18 05:29:00,
2013-06-18 01:44:00,69.4,65.0,29.77,SW,222,0.0,-999.0,85,-99.99,,,0.00,weatherlink.com 1.10,2013-06-18 05:44:00,
2013-06-18 01:59:00,69.1,65.0,29.77,SW,222,0.0,-999.0,86,-99.99,,,0.00,weatherlink.com 1.10,2013-06-18 05:59:00,
2013-06-18 02:14:00,68.6,64.0,29.77,SW,222,0.0,-999.0,86,-99.99,,,0.00,weatherlink.com 1.10,2013-06-18 06:14:00,
2013-06-18 02:29:00,68.3,64.0,29.77,SW,222,0.0,-999.0,87,-99.99,,,0.00,weatherlink.com 1.10,2013-06-18 06:29:00,
2013-06-18 02:44:00,67.9,64.0,29.76,SW,222,0.0,-999.0,87,-99.99,,,0.00,weatherlink.com 1.10,2013-06-18 06:44:00,
2013-06-18 02:59:00,67.6,64.0,29.76,SW,222,0.0,-999.0,88,-99.99,,,0.00,weatherlink.com 1.10,2013-06-18 06:59:00,
2013-06-18 03:14:00,67.4,64.0,29.76,SW,222,0.0,-999.0,89,-99.99,,,0.00,weatherlink.com 1.10,2013-06-18 07:14:00,
2013-06-18 03:29:00,67.1,64.0,29.76,SW,222,0.0,-999.0,89,-99.99,,,0.00,weatherlink.com 1.10,2013-06-18 07:29:00,
2013-06-18 03:44:00,66.9,64.0,29.75,SW,222,0.0,-999.0,89,-99.99,,,0.00,weatherlink.com 1.10,2013-06-18 07:44:00,
2013-06-18 03:59:00,66.6,64.0,29.76,SW,222,0.0,-999.0,90,-99.99,,,0.00,weatherlink.com 1.10,2013-06-18 07:59:00,
2013-06-18 04:14:00,66.4,64.0,29.76,SW,222,0.0,-999.0,90,-99.99,,,0.00,weatherlink.com 1.10,2013-06-18 08:14:00,
2013-06-18 04:29:00,66.3,63.0,29.76,SW,222,0.0,-999.0,90,-99.99,,,0.00,weatherlink.com 1.10,2013-06-18 08:29:00,
2013-06-18 04:44:00,66.1,64.0,29.76,SW,222,0.0,-999.0,91,-99.99,,,0.00,weatherlink.com 1.10,2013-06-18 08:44:00,
2013-06-18 04:59:00,66.0,63.0,29.77,SSW,213,0.0,-999.0,91,-99.99,,,0.00,weatherlink.com 1.10,2013-06-18 08:59:00,
2013-06-18 05:14:00,65.8,63.0,29.77,SSW,213,0.0,-999.0,91,-99.99,,,0.00,weatherlink.com 1.10,2013-06-18 09:14:00,
2013-06-18 05:29:00,65.8,63.0,29.77,SSW,213,0.0,-999.0,91,-99.99,,,0.00,weatherlink.com 1.10,2013-06-18 09:29:00,
2013-06-18 05:44:00,65.6,63.0,29.77,SSW,213,0.0,-999.0,92,-99.99,,,0.00,weatherlink.com 1.10,2013-06-18 09:44:00,
2013-06-18 05:59:00,65.8,64.0,29.77,South,189,1.0,-999.0,92,-99.99,,,0.00,weatherlink.com 1.10,2013-06-18 09:59:00,
2013-06-18 06:14:00,66.0,64.0,29.78,NNE,17,0.0,-999.0,92,-99.99,,,0.00,weatherlink.com 1.10,2013-06-18 10:14:00,
2013-06-18 06:29:00,66.1,64.0,29.77,NE,42,2.0,-999.0,92,-99.99,,,0.00,weatherlink.com 1.10,2013-06-18 10:29:00,
2013-06-18 06:44:00,66.4,64.0,29.78,ENE,72,1.0,-999.0,92,-99.99,,,0.00,weatherlink.com 1.10,2013-06-18 10:44:00,
2013-06-18 06:59:00,67.3,65.0,29.78,ENE,73,2.0,-999.0,92,-99.99,,,0.00,weatherlink.com 1.10,2013-06-18 10:59:00,
2013-06-18 07:14:00,68.4,66.0,29.79,NE,47,0.0,-999.0,91,-99.99,,,0.00,weatherlink.com 1.10,2013-06-18 11:14:00,
2013-06-18 07:29:00,69.8,66.0,29.78,ENE,73,0.0,-999.0,88,-99.99,,,0.00,weatherlink.com 1.10,2013-06-18 11:29:00,
2013-06-18 07:44:00,70.9,66.0,29.78,East,92,0.0,-999.0,84,-99.99,,,0.00,weatherlink.com 1.10,2013-06-18 11:44:00,
2013-06-18 07:59:00,72.1,66.0,29.78,East,92,0.0,-999.0,81,-99.99,,,0.00,weatherlink.com 1.10,2013-06-18 11:59:00,
2013-06-18 08:14:00,73.3,66.0,29.78,East,93,0.0,-999.0,78,-99.99,,,0.00,weatherlink.com 1.10,2013-06-18 12:14:00,
2013-06-18 08:29:00,74.9,67.0,29.79,East,95,1.0,-999.0,75,-99.99,,,0.00,weatherlink.com 1.10,2013-06-18 12:29:00,
2013-06-18 08:44:00,75.8,66.0,29.79,ESE,109,0.0,-999.0,72,-99.99,,,0.00,weatherlink.com 1.10,2013-06-18 12:44:00,
2013-06-18 09:00:00,77.0,66.0,29.79,ENE,58,0.0,-999.0,69,-99.99,,,0.00,weatherlink.com 1.10,2013-06-18 13:00:00,
2013-06-18 09:15:00,78.5,66.0,29.78,SSW,212,3.0,-999.0,65,-99.99,,,0.00,weatherlink.com 1.10,2013-06-18 13:15:00,
2013-06-18 09:30:00,79.6,65.0,29.78,SSE,162,1.0,-999.0,62,-99.99,,,0.00,weatherlink.com 1.10,2013-06-18 13:30:00,
2013-06-18 09:45:00,79.9,66.0,29.78,SW,216,2.0,-999.0,62,-99.99,,,0.00,weatherlink.com 1.10,2013-06-18 13:45:00,
2013-06-18 10:00:00,79.6,65.0,29.78,SSE,164,1.0,-999.0,62,-99.99,,,0.00,weatherlink.com 1.10,2013-06-18 14:00:00,
2013-06-18 10:15:00,79.8,66.0,29.77,South,189,1.0,-999.0,62,-99.99,,,0.00,weatherlink.com 1.10,2013-06-18 14:15:00,
2013-06-18 10:30:00,80.7,65.0,29.77,SE,141,3.0,-999.0,59,-99.99,,,0.00,weatherlink.com 1.10,2013-06-18 14:30:00,
2013-06-18 10:45:00,80.9,65.0,29.77,SSE,164,5.0,-999.0,58,-99.99,,,0.00,weatherlink.com 1.10,2013-06-18 14:45:00,
2013-06-18 11:00:00,81.2,63.0,29.77,SE,140,5.0,-999.0,55,-99.99,,,0.00,weatherlink.com 1.10,2013-06-18 15:00:00,
2013-06-18 11:15:00,81.2,64.0,29.77,SW,226,2.0,-999.0,57,-99.99,,,0.00,weatherlink.com 1.10,2013-06-18 15:15:00,
2013-06-18 11:30:00,82.2,63.0,29.77,South,179,3.0,-999.0,53,-99.99,,,0.00,weatherlink.com 1.10,2013-06-18 15:30:00,
2013-06-18 11:45:00,82.4,64.0,29.76,SE,127,4.0,-999.0,54,-99.99,,,0.00,weatherlink.com 1.10,2013-06-18 15:45:00,
2013-06-18 12:00:00,81.8,64.0,29.77,SSE,164,3.0,-999.0,55,-99.99,,,0.00,weatherlink.com 1.10,2013-06-18 16:00:00,
2013-06-18 12:15:00,81.6,64.0,29.76,South,169,3.0,-999.0,56,-99.99,,,0.00,weatherlink.com 1.10,2013-06-18 16:15:00,
2013-06-18 12:30:00,81.1,65.0,29.76,SW,234,6.0,-999.0,58,-99.99,,,0.00,weatherlink.com 1.10,2013-06-18 16:30:00,
2013-06-18 12:45:00,82.4,64.0,29.76,SSW,198,4.0,-999.0,54,-99.99,,,0.00,weatherlink.com 1.10,2013-06-18 16:45:00,
2013-06-18 13:00:00,83.0,65.0,29.74,SSE,151,4.0,-999.0,54,-99.99,,,0.00,weatherlink.com 1.10,2013-06-18 17:00:00,
2013-06-18 13:15:00,82.2,64.0,29.74,South,191,1.0,-999.0,55,-99.99,,,0.00,weatherlink.com 1.10,2013-06-18 17:15:00,
2013-06-18 13:30:00,81.4,64.0,29.74,South,191,1.0,-999.0,56,-99.99,,,0.00,weatherlink.com 1.10,2013-06-18 17:30:00,
2013-06-18 13:45:00,79.6,64.0,29.74,SSW,199,1.0,-999.0,60,-99.99,,,0.00,weatherlink.com 1.10,2013-06-18 17:45:00,
2013-06-18 14:00:00,78.1,64.0,29.73,SSW,202,6.0,-999.0,62,-99.99,,,0.00,weatherlink.com 1.10,2013-06-18 18:00:00,
2013-06-18 14:15:00,77.4,64.0,29.72,South,172,1.0,-999.0,64,-99.99,,,0.00,weatherlink.com 1.10,2013-06-18 18:15:00,
2013-06-18 14:30:00,76.7,64.0,29.72,South,178,0.0,-999.0,64,-99.99,,,0.00,weatherlink.com 1.10,2013-06-18 18:30:00,
2013-06-18 14:45:00,78.1,64.0,29.73,SSE,164,2.0,-999.0,62,-99.99,,,0.00,weatherlink.com 1.10,2013-06-18 18:45:00,
2013-06-18 15:00:00,77.7,63.0,29.72,ESE,121,6.0,-999.0,61,-99.99,,,0.00,weatherlink.com 1.10,2013-06-18 19:00:00,
2013-06-18 15:15:00,76.7,62.0,29.73,SE,140,2.0,-999.0,60,-99.99,,,0.00,weatherlink.com 1.10,2013-06-18 19:15:00,
2013-06-18 15:30:00,76.3,64.0,29.73,SE,136,1.0,-999.0,66,-99.99,,,0.00,weatherlink.com 1.10,2013-06-18 19:30:00,
2013-06-18 15:45:00,75.3,65.0,29.73,SW,226,3.0,-999.0,71,-99.99,,,0.00,weatherlink.com 1.10,2013-06-18 19:45:00,
2013-06-18 16:00:00,74.6,66.0,29.74,SSW,213,2.0,-999.0,75,-99.99,,,0.00,weatherlink.com 1.10,2013-06-18 20:00:00,
2013-06-18 16:15:00,73.3,68.0,29.74,SSW,209,4.0,-999.0,82,-99.99,,,0.00,weatherlink.com 1.10,2013-06-18 20:15:00,
2013-06-18 16:30:00,72.0,68.0,29.73,West,272,5.0,-999.0,86,-99.99,,,0.03,weatherlink.com 1.10,2013-06-18 20:30:00,
2013-06-18 16:45:00,68.8,64.0,29.73,West,263,6.0,-999.0,84,-99.99,,,0.04,weatherlink.com 1.10,2013-06-18 20:45:00,
2013-06-18 17:00:00,68.3,64.0,29.73,WSW,240,2.0,-999.0,86,-99.99,,,0.04,weatherlink.com 1.10,2013-06-18 21:00:00,
2013-06-18 17:15:00,68.1,64.0,29.73,WSW,257,0.0,-999.0,87,-99.99,,,0.05,weatherlink.com 1.10,2013-06-18 21:15:00,
2013-06-18 17:30:00,67.9,64.0,29.73,West,267,0.0,-999.0,88,-99.99,,,0.06,weatherlink.com 1.10,2013-06-18 21:30:00,
2013-06-18 17:45:00,68.1,65.0,29.74,West,272,0.0,-999.0,89,-99.99,,,0.07,weatherlink.com 1.10,2013-06-18 21:45:00,
2013-06-18 18:00:00,67.8,65.0,29.75,West,272,0.0,-999.0,89,-99.99,,,0.07,weatherlink.com 1.10,2013-06-18 22:00:00,
2013-06-18 18:15:00,67.8,65.0,29.75,West,272,0.0,-999.0,90,-99.99,,,0.09,weatherlink.com 1.10,2013-06-18 22:15:00,
2013-06-18 18:30:00,68.1,65.0,29.76,NNW,346,1.0,-999.0,91,-99.99,,,0.11,weatherlink.com 1.10,2013-06-18 22:30:00,
2013-06-18 18:45:00,68.3,66.0,29.75,NNW,333,1.0,-999.0,92,-99.99,,,0.12,weatherlink.com 1.10,2013-06-18 22:45:00,
2013-06-18 19:00:00,68.4,66.0,29.75,NNW,333,0.0,-999.0,92,-99.99,,,0.13,weatherlink.com 1.10,2013-06-18 23:00:00,
2013-06-18 19:15:00,68.6,66.0,29.74,NNW,333,0.0,-999.0,92,-99.99,,,0.14,weatherlink.com 1.10,2013-06-18 23:15:00,
2013-06-18 19:30:00,68.6,66.0,29.74,NNW,333,0.0,-999.0,92,-99.99,,,0.16,weatherlink.com 1.10,2013-06-18 23:30:00,
2013-06-18 19:45:00,68.4,66.0,29.73,NNW,333,1.0,-999.0,92,-99.99,,,0.17,weatherlink.com 1.10,2013-06-18 23:45:00,
2013-06-18 20:00:00,67.1,65.0,29.72,SSE,158,1.0,-999.0,92,-99.99,,,0.17,weatherlink.com 1.10,2013-06-19 00:00:00,
2013-06-18 20:15:00,67.3,65.0,29.72,SSE,167,1.0,-999.0,92,-99.99,,,0.18,weatherlink.com 1.10,2013-06-19 00:15:00,
2013-06-18 20:30:00,67.4,65.0,29.71,SE,145,0.0,-999.0,92,-99.99,,,0.18,weatherlink.com 1.10,2013-06-19 00:30:00,
2013-06-18 20:45:00,67.3,65.0,29.72,NNE,24,5.0,-999.0,92,-99.99,,,0.18,weatherlink.com 1.10,2013-06-19 00:45:00,
2013-06-18 21:00:00,67.6,65.0,29.72,NNE,24,1.0,-999.0,92,-99.99,,,0.18,weatherlink.com 1.10,2013-06-19 01:00:00,
2013-06-18 21:15:00,67.9,66.0,29.72,NNE,31,10.0,-999.0,92,-99.99,,,0.18,weatherlink.com 1.10,2013-06-19 01:15:00,
2013-06-18 21:30:00,67.6,65.0,29.73,NE,35,6.0,-999.0,92,-99.99,,,0.18,weatherlink.com 1.10,2013-06-19 01:30:00,
2013-06-18 21:45:00,67.3,65.0,29.74,North,352,3.0,-999.0,92,-99.99,,,0.19,weatherlink.com 1.10,2013-06-19 01:45:00,
2013-06-18 22:00:00,66.3,64.0,29.75,NNE,27,6.0,-999.0,92,-99.99,,,0.19,weatherlink.com 1.10,2013-06-19 02:00:00,
2013-06-18 22:15:00,66.0,64.0,29.75,ENE,58,6.0,-999.0,92,-99.99,,,0.19,weatherlink.com 1.10,2013-06-19 02:15:00,
2013-06-18 22:30:00,65.8,64.0,29.75,NNE,25,6.0,-999.0,92,-99.99,,,0.19,weatherlink.com 1.10,2013-06-19 02:30:00,
2013-06-18 22:45:00,65.6,63.0,29.74,NNE,25,3.0,-999.0,92,-99.99,,,0.19,weatherlink.com 1.10,2013-06-19 02:45:00,
2013-06-18 23:00:00,65.6,63.0,29.75,NNE,31,1.0,-999.0,92,-99.99,,,0.00,weatherlink.com 1.10,2013-06-19 03:00:00,
2013-06-18 23:15:00,65.6,63.0,29.76,NNE,14,2.0,-999.0,92,-99.99,,,0.00,weatherlink.com 1.10,2013-06-19 03:15:00,
2013-06-18 23:30:00,65.6,63.0,29.76,NE,37,1.0,-999.0,92,-99.99,,,0.00,weatherlink.com 1.10,2013-06-19 03:30:00,
2013-06-18 23:46:00,65.3,63.0,29.76,NE,37,5.0,-999.0,92,-99.99,,,0.00,weatherlink.com 1.10,2013-06-19 03:46:00,